TimeEET,TemperatureF,Dew PointF,Humidity,Sea Level PressureIn,VisibilityMPH,Wind Direction,Wind SpeedMPH,Gust SpeedMPH,PrecipitationIn,Events,Conditions,WindDirDegrees,DateUTC
12:00 AM,68.0,48.2,49,30.01,-9999.0,NW,12.7,-,N/A,,Clear,310,2013-04-13 22:00:00
1:00 AM,68.0,48.2,49,30.01,-9999.0,NW,12.7,-,N/A,,Clear,310,2013-04-13 23:00:00
2:00 AM,68,49,39,30.00,6,NW,13.8,,,,,320,2013-04-14 00:00:00
2:00 AM,68.0,48.2,49,29.98,-9999.0,NW,13.8,-,N/A,,Clear,320,2013-04-14 00:00:00
3:00 AM,68.0,48.2,49,29.98,-9999.0,NW,11.5,-,N/A,,Clear,320,2013-04-14 01:00:00
5:00 AM,66.2,46.4,49,30.01,-9999.0,NNW,9.2,-,N/A,,Clear,340,2013-04-14 03:00:00
6:00 AM,66.2,46.4,49,30.01,-9999.0,NNW,12.7,-,N/A,,Clear,340,2013-04-14 04:00:00
8:00 AM,72,49,34,30.04,6,North,23.0,,,,,350,2013-04-14 06:00:00
8:00 AM,71.6,50.0,46,30.04,-9999.0,North,23.0,-,N/A,,Clear,350,2013-04-14 06:00:00
9:00 AM,73.4,51.8,47,30.04,-9999.0,North,23.0,-,N/A,,Clear,350,2013-04-14 07:00:00
10:00 AM,77.0,55.4,47,30.01,-9999.0,North,20.7,-,N/A,,Clear,360,2013-04-14 08:00:00
11:00 AM,82.4,55.4,39,30.01,-9999.0,North,20.7,-,N/A,,Clear,360,2013-04-14 09:00:00
12:00 PM,84.2,57.2,40,29.98,-9999.0,North,18.4,-,N/A,,Clear,360,2013-04-14 10:00:00
1:00 PM,84.2,59.0,42,29.95,-9999.0,North,16.1,-,N/A,,Clear,10,2013-04-14 11:00:00
2:00 PM,87,59,29,29.95,6,North,13.8,,,,,10,2013-04-14 12:00:00
2:00 PM,86.0,59.0,40,29.95,-9999.0,North,13.8,-,N/A,,Clear,10,2013-04-14 12:00:00
3:00 PM,87.8,59.0,38,29.92,-9999.0,North,11.5,-,N/A,,Clear,10,2013-04-14 13:00:00
4:00 PM,87.8,59.0,38,29.92,-9999.0,North,11.5,-,N/A,,Clear,10,2013-04-14 14:00:00
6:00 PM,78.8,62.6,57,29.89,-9999.0,Calm,Calm,-,N/A,,Clear,0,2013-04-14 16:00:00
7:00 PM,75.2,62.6,65,29.89,-9999.0,North,5.8,-,N/A,,Clear,350,2013-04-14 17:00:00
8:00 PM,74,61,54,29.92,6,Calm,Calm,,,,,,2013-04-14 18:00:00
8:00 PM,75.2,60.8,61,29.92,-9999.0,Calm,Calm,-,N/A,,Clear,0,2013-04-14 18:00:00
9:00 PM,75.2,51.8,44,29.92,-9999.0,NNW,10.4,-,N/A,,Clear,330,2013-04-14 19:00:00
10:00 PM,75.2,48.2,38,29.89,-9999.0,NNW,9.2,-,N/A,,Clear,330,2013-04-14 20:00:00
11:00 PM,75.2,44.6,34,29.89,-9999.0,NW,10.4,-,N/A,,Clear,320,2013-04-14 21:00:00